Content
SEND FEEDBACK

Daily
Averages
Monthly
Summary
Switzerland

GENEVA, SWITZERLAND


Home > Europe > Switzerland
Elevation: 1364 feet     Latitude: 46 15N     Longitude: 006 08E

WEATHER
 
SELECT A DAY
Number of Records: 305,866;   Date Range: 7/1/96 - 8/12/14
 
SHARE

PRINT THIS DATA

[ ← Previous Day ]
WEATHER ALMANAC - JUNE 24, 2013
[ Next Day → ]
[ °C ]   °F
We're sorry. There is no daily almanac available for Geneva, Switzerland on June 24, 2013.
WEATHER BY HOUR - JUNE 24, 2013
[ °C ]   °F
Local TimeTemperatureDewpointHumidityBarometerVisibilityWind DirectionWind SpeedGust SpeedPrecipitationEventsConditions
12:20 AM59.0 °F46.4 °F63 %30.15 in6.2 miWest (260°)6.9 mphMostly Cloudy
12:50 AM57.2 °F44.6 °F63 %30.15 in6.2 miWSW (240°)6.9 mphMostly Cloudy
1:00 AM57.0 °F46.0 °F56 %30.17 inSouth (190°)6.9 mph
1:20 AM57.2 °F46.4 °F67 %30.18 in6.2 miSSW (210°)5.8 mphMostly Cloudy
1:50 AM57.2 °F46.4 °F67 %30.18 in6.2 miVariable2.3 mphMostly Cloudy
2:00 AM57.0 °F47.0 °F59 %30.17 in31.0 miSW (230°)1.2 mphPartly Cloudy
2:20 AM55.4 °F50.0 °F82 %30.18 in6.2 miVariable1.2 mphRainLight Rain Showers
2:50 AM55.4 °F48.2 °F77 %30.15 in6.2 miVariable2.3 mphMostly Cloudy
3:00 AM56.0 °F46.0 °F59 %30.17 inSSW (210°)4.6 mph
3:50 AM57.2 °F46.4 °F67 %30.15 in6.2 miWSW (250°)4.6 mphRainLight Rain Showers
4:00 AM55.0 °F48.0 °F70 %30.16 inWest (260°)4.6 mph
4:20 AM55.4 °F48.2 °F77 %30.15 in6.2 miSW (230°)2.3 mphRainLight Rain Showers
4:50 AM55.4 °F48.2 °F77 %30.15 in6.2 miVariable2.3 mphMostly Cloudy
5:20 AM53.6 °F50.0 °F88 %30.15 in6.2 miVariable2.3 mphMostly Cloudy
5:50 AM53.6 °F50.0 °F88 %30.15 in6.2 miWSW (240°)3.5 mphMostly Cloudy
6:00 AM54.0 °F48.0 °F75 %30.15 inWSW (250°)3.5 mph
6:20 AM53.6 °F50.0 °F88 %30.15 in5.0 miWSW (250°)3.5 mphRainLight Rain Showers
6:50 AM51.8 °F50.0 °F94 %30.15 in5.0 miSW (230°)3.5 mphRainLight Rain Showers
7:00 AM53.0 °F51.0 °F88 %30.17 inSSW (210°)4.6 mph
7:20 AM53.6 °F51.8 °F94 %30.15 in6.2 miSSW (200°)6.9 mphMostly Cloudy
7:50 AM53.6 °F51.8 °F94 %30.15 in6.2 miVariable2.3 mphMostly Cloudy
8:00 AM54.0 °F49.0 °F78 %30.17 in19.0 miWNW (290°)3.5 mphRainLight Rain Showers
8:20 AM53.6 °F48.2 °F82 %30.18 in6.2 miVariable3.5 mphMostly Cloudy
8:50 AM53.6 °F44.6 °F72 %30.18 in6.2 miNNW (330°)3.5 mphRainLight Rain Showers
9:00 AM53.0 °F45.0 °F65 %30.20 inNorth (350°)4.6 mph
9:20 AM53.6 °F46.4 °F77 %30.21 in6.2 miVariable2.3 mphRainLight Rain Showers
9:50 AM55.4 °F46.4 °F72 %30.21 in6.2 miNW (310°)3.5 mphMostly Cloudy
10:00 AM54.0 °F49.0 °F77 %30.22 inENE (60°)6.9 mph
10:20 AM55.4 °F48.2 °F77 %30.21 in6.2 miESE (110°)8.1 mphMostly Cloudy
10:50 AM55.4 °F48.2 °F77 %30.21 in6.2 miESE (120°)6.9 mphMostly Cloudy
11:20 AM55.4 °F46.4 °F72 %30.24 in6.2 miEast (80°)4.6 mphMostly Cloudy
11:50 AM55.4 °F46.4 °F72 %30.24 in6.2 miVariable2.3 mphMostly Cloudy
12:00 PM56.0 °F45.0 °F57 %30.24 inNW (310°)3.5 mph
12:20 PM57.2 °F46.4 °F67 %30.24 in6.2 miSouth (170°)6.9 mphMostly Cloudy
12:50 PM59.0 °F50.0 °F72 %30.24 in5.6 miSSW (200°)3.5 mphRainLight Rain Showers
1:00 PM57.0 °F46.0 °F57 %30.24 inSW (230°)3.5 mph
1:20 PM59.0 °F48.2 °F67 %30.24 in6.2 miSSW (210°)4.6 mphMostly Cloudy
1:50 PM57.2 °F48.2 °F72 %30.24 in6.2 miESE (110°)5.8 mphRainLight Rain Showers
2:00 PM56.0 °F51.0 °F76 %30.25 in22.0 miEast (80°)5.8 mphPartly Cloudy
2:20 PM59.0 °F46.4 °F63 %30.24 in6.2 miENE (70°)4.6 mphMostly Cloudy
2:50 PM59.0 °F48.2 °F67 %30.24 in6.2 miVariable2.3 mphMostly Cloudy
3:00 PM58.0 °F46.0 °F55 %30.24 inSW (230°)4.6 mph
3:20 PM59.0 °F48.2 °F67 %30.24 in6.2 miVariable3.5 mphMostly Cloudy
3:50 PM60.8 °F46.4 °F59 %30.24 in6.2 miVariable5.8 mphMostly Cloudy
4:00 PM61.0 °F43.0 °F41 %30.22 inWest (280°)6.9 mph
4:20 PM60.8 °F44.6 °F55 %30.24 in6.2 miVariable4.6 mphMostly Cloudy
4:50 PM60.8 °F46.4 °F59 %30.24 in6.2 miVariable6.9 mphMostly Cloudy
5:20 PM60.8 °F44.6 °F55 %30.24 in6.2 miNNW (340°)4.6 mphMostly Cloudy
5:50 PM60.8 °F46.4 °F59 %30.24 in6.2 miNNW (330°)6.9 mphMostly Cloudy
6:00 PM62.0 °F44.0 °F41 %30.24 inNorth (350°)6.9 mph
6:20 PM62.6 °F46.4 °F55 %30.24 in6.2 miVariable6.9 mphMostly Cloudy
6:50 PM62.6 °F44.6 °F52 %30.24 in6.2 miVariable3.5 mphMostly Cloudy
7:00 PM60.0 °F44.0 °F44 %30.24 inNNW (330°)4.6 mph
7:20 PM60.8 °F44.6 °F55 %30.24 in6.2 miVariable6.9 mphScattered Clouds
7:50 PM59.0 °F44.6 °F59 %30.24 in6.2 miNorth (10°)4.6 mphPartly Cloudy
8:00 PM60.0 °F45.0 °F46 %30.25 in31.0 miNNW (330°)5.8 mphPartly Cloudy
8:20 PM59.0 °F44.6 °F59 %30.24 in6.2 miVariable3.5 mphMostly Cloudy
8:50 PM57.2 °F44.6 °F63 %30.24 in6.2 miNNE (20°)4.6 mphScattered Clouds
9:00 PM56.0 °F46.0 °F60 %30.26 inNorth (10°)3.5 mph
9:20 PM55.4 °F48.2 °F77 %30.24 in6.2 miNNW (340°)2.3 mphPartly Cloudy
9:50 PM55.4 °F44.6 °F67 %30.27 in6.2 miNNW (330°)3.5 mphPartly Cloudy
10:00 PM56.0 °F43.0 °F52 %30.27 inNNW (340°)3.5 mph
10:20 PM55.4 °F44.6 °F67 %30.27 in6.2 miNorth (350°)3.5 mphPartly Cloudy
10:50 PM53.6 °F44.6 °F72 %30.27 in6.2 miNorth (10°)2.3 mphPartly Cloudy
11:20 PM51.8 °F44.6 °F76 %30.27 in6.2 miNNW (340°)2.3 mphPartly Cloudy
11:50 PM51.8 °F44.6 °F76 %30.27 in6.2 miNNW (330°)2.3 mphPartly Cloudy
Hourly data recorded from LSGG, located miles away from Geneva, Switzerland







STORIES FROM OUR PARTNERS